Time,TemperatureF,DewpointF,PressureIn,WindDirection,WindDirectionDegrees,WindSpeedMPH,WindSpeedGustMPH,Humidity,HourlyPrecipIn,Conditions,Clouds,dailyrainin,SoftwareType,DateUTC
2013-03-26 00:11:00,37.5,28.0,31.26,North,355,0.0,-999.0,69,-99.99,,,0.00,weatherlink.com 1.10,2013-03-26 05:11:00,
2013-03-26 00:28:00,37.8,27.0,31.26,North,355,0.0,-999.0,66,-99.99,,,0.00,weatherlink.com 1.10,2013-03-26 05:28:00,
2013-03-26 00:41:00,39.7,27.0,31.26,North,355,0.0,-999.0,62,-99.99,,,0.00,weatherlink.com 1.10,2013-03-26 05:41:00,
2013-03-26 01:11:00,38.4,28.0,31.26,North,355,0.0,-999.0,66,-99.99,,,0.00,weatherlink.com 1.10,2013-03-26 06:11:00,
2013-03-26 01:26:00,38.3,27.0,31.27,North,355,0.0,-999.0,65,-99.99,,,0.00,weatherlink.com 1.10,2013-03-26 06:26:00,
2013-03-26 01:41:00,38.2,27.0,31.27,North,355,0.0,-999.0,64,-99.99,,,0.00,weatherlink.com 1.10,2013-03-26 06:41:00,
2013-03-26 01:56:00,39.0,26.0,31.26,North,355,0.0,-999.0,60,-99.99,,,0.00,weatherlink.com 1.10,2013-03-26 06:56:00,
2013-03-26 02:11:00,39.5,25.0,31.26,North,355,0.0,-999.0,57,-99.99,,,0.00,weatherlink.com 1.10,2013-03-26 07:11:00,
2013-03-26 02:41:00,40.2,24.0,31.26,North,355,0.0,-999.0,53,-99.99,,,0.00,weatherlink.com 1.10,2013-03-26 07:41:00,
2013-03-26 02:56:00,40.2,24.0,31.26,North,355,0.0,-999.0,52,-99.99,,,0.00,weatherlink.com 1.10,2013-03-26 07:56:00,
2013-03-26 03:41:00,38.5,23.0,31.24,North,355,0.0,-999.0,54,-99.99,,,0.00,weatherlink.com 1.10,2013-03-26 08:41:00,
2013-03-26 04:11:00,39.4,22.0,31.24,North,355,1.0,-999.0,51,-99.99,,,0.00,weatherlink.com 1.10,2013-03-26 09:11:00,
2013-03-26 04:26:00,39.2,22.0,31.24,North,5,0.0,-999.0,51,-99.99,,,0.00,weatherlink.com 1.10,2013-03-26 09:26:00,
2013-03-26 04:56:00,38.0,24.0,31.25,North,5,0.0,-999.0,57,-99.99,,,0.00,weatherlink.com 1.10,2013-03-26 09:56:00,
2013-03-26 05:26:00,35.3,24.0,31.26,North,5,0.0,-999.0,64,-99.99,,,0.00,weatherlink.com 1.10,2013-03-26 10:26:00,
2013-03-26 05:41:00,33.8,25.0,31.26,North,5,0.0,-999.0,71,-99.99,,,0.00,weatherlink.com 1.10,2013-03-26 10:41:00,
2013-03-26 05:56:00,32.6,25.0,31.26,North,5,0.0,-999.0,74,-99.99,,,0.00,weatherlink.com 1.10,2013-03-26 10:56:00,
2013-03-26 06:11:00,31.7,24.0,31.26,North,5,0.0,-999.0,74,-99.99,,,0.00,weatherlink.com 1.10,2013-03-26 11:11:00,
2013-03-26 06:26:00,31.0,24.0,31.27,North,5,0.0,-999.0,75,-99.99,,,0.00,weatherlink.com 1.10,2013-03-26 11:26:00,
2013-03-26 07:11:00,29.2,23.0,31.29,North,5,0.0,-999.0,77,-99.99,,,0.00,weatherlink.com 1.10,2013-03-26 12:11:00,
2013-03-26 07:26:00,29.0,23.0,31.30,North,5,0.0,-999.0,79,-99.99,,,0.00,weatherlink.com 1.10,2013-03-26 12:26:00,
2013-03-26 07:41:00,29.0,23.0,31.31,North,5,0.0,-999.0,79,-99.99,,,0.00,weatherlink.com 1.10,2013-03-26 12:41:00,
2013-03-26 07:56:00,30.3,25.0,31.32,North,5,0.0,-999.0,80,-99.99,,,0.00,weatherlink.com 1.10,2013-03-26 12:56:00,
2013-03-26 08:11:00,32.4,27.0,31.33,North,5,0.0,-999.0,80,-99.99,,,0.00,weatherlink.com 1.10,2013-03-26 13:11:00,
2013-03-26 08:26:00,35.2,29.0,31.33,North,5,0.0,-999.0,79,-99.99,,,0.00,weatherlink.com 1.10,2013-03-26 13:26:00,
2013-03-26 08:41:00,38.5,29.0,31.34,North,5,0.0,-999.0,69,-99.99,,,0.00,weatherlink.com 1.10,2013-03-26 13:41:00,
2013-03-26 08:56:00,41.3,28.0,31.34,North,5,0.0,-999.0,60,-99.99,,,0.00,weatherlink.com 1.10,2013-03-26 13:56:00,
2013-03-26 09:12:00,43.2,26.0,31.35,North,5,0.0,-999.0,51,-99.99,,,0.00,weatherlink.com 1.10,2013-03-26 14:12:00,
2013-03-26 09:27:00,44.4,27.0,31.35,North,5,0.0,-999.0,50,-99.99,,,0.00,weatherlink.com 1.10,2013-03-26 14:27:00,
2013-03-26 09:42:00,45.5,27.0,31.35,North,360,0.0,-999.0,49,-99.99,,,0.00,weatherlink.com 1.10,2013-03-26 14:42:00,
2013-03-26 09:57:00,47.1,27.0,31.35,North,5,0.0,-999.0,45,-99.99,,,0.00,weatherlink.com 1.10,2013-03-26 14:57:00,
2013-03-26 10:12:00,47.7,27.0,31.35,NE,34,0.0,-999.0,45,-99.99,,,0.00,weatherlink.com 1.10,2013-03-26 15:12:00,
2013-03-26 10:27:00,49.0,28.0,31.35,NNE,26,2.0,-999.0,44,-99.99,,,0.00,weatherlink.com 1.10,2013-03-26 15:27:00,
2013-03-26 10:42:00,49.8,26.0,31.35,NNE,29,5.0,-999.0,40,-99.99,,,0.00,weatherlink.com 1.10,2013-03-26 15:42:00,
2013-03-26 10:57:00,50.2,26.0,31.35,East,82,0.0,-999.0,39,-99.99,,,0.00,weatherlink.com 1.10,2013-03-26 15:57:00,
2013-03-26 11:12:00,51.1,26.0,31.35,NNW,333,5.0,-999.0,38,-99.99,,,0.00,weatherlink.com 1.10,2013-03-26 16:12:00,
2013-03-26 11:27:00,52.5,26.0,31.35,NNE,24,0.0,-999.0,36,-99.99,,,0.00,weatherlink.com 1.10,2013-03-26 16:27:00,
2013-03-26 11:42:00,52.6,27.0,31.34,North,350,0.0,-999.0,37,-99.99,,,0.00,weatherlink.com 1.10,2013-03-26 16:42:00,
2013-03-26 11:57:00,53.6,26.0,31.34,NNW,344,6.0,-999.0,34,-99.99,,,0.00,weatherlink.com 1.10,2013-03-26 16:57:00,
2013-03-26 12:12:00,54.1,27.0,31.33,NNW,344,5.0,-999.0,35,-99.99,,,0.00,weatherlink.com 1.10,2013-03-26 17:12:00,
2013-03-26 12:27:00,54.5,29.0,31.32,North,355,7.0,-999.0,38,-99.99,,,0.00,weatherlink.com 1.10,2013-03-26 17:27:00,
2013-03-26 12:42:00,55.3,29.0,31.32,North,350,5.0,-999.0,37,-99.99,,,0.00,weatherlink.com 1.10,2013-03-26 17:42:00,
2013-03-26 12:57:00,55.9,28.0,31.31,NNE,17,2.0,-999.0,35,-99.99,,,0.00,weatherlink.com 1.10,2013-03-26 17:57:00,
2013-03-26 13:12:00,56.2,27.0,31.30,NNW,339,11.0,-999.0,33,-99.99,,,0.00,weatherlink.com 1.10,2013-03-26 18:12:00,
2013-03-26 13:27:00,57.0,28.0,31.29,NNE,12,7.0,-999.0,33,-99.99,,,0.00,weatherlink.com 1.10,2013-03-26 18:27:00,
2013-03-26 13:42:00,57.3,30.0,31.28,NNE,25,2.0,-999.0,35,-99.99,,,0.00,weatherlink.com 1.10,2013-03-26 18:42:00,
2013-03-26 13:57:00,57.8,30.0,31.28,North,360,2.0,-999.0,35,-99.99,,,0.00,weatherlink.com 1.10,2013-03-26 18:57:00,
2013-03-26 14:12:00,57.8,30.0,31.27,North,10,4.0,-999.0,35,-99.99,,,0.00,weatherlink.com 1.10,2013-03-26 19:12:00,
2013-03-26 14:27:00,57.5,29.0,31.26,NNW,348,3.0,-999.0,34,-99.99,,,0.00,weatherlink.com 1.10,2013-03-26 19:27:00,
2013-03-26 14:42:00,58.5,29.0,31.25,North,355,10.0,-999.0,33,-99.99,,,0.00,weatherlink.com 1.10,2013-03-26 19:42:00,
2013-03-26 14:57:00,59.3,30.0,31.24,North,355,6.0,-999.0,33,-99.99,,,0.00,weatherlink.com 1.10,2013-03-26 19:57:00,
2013-03-26 15:12:00,58.5,29.0,31.24,SSW,209,2.0,-999.0,32,-99.99,,,0.00,weatherlink.com 1.10,2013-03-26 20:12:00,
2013-03-26 15:27:00,58.4,28.0,31.23,NE,42,6.0,-999.0,32,-99.99,,,0.00,weatherlink.com 1.10,2013-03-26 20:27:00,
2013-03-26 15:42:00,59.1,30.0,31.23,NE,43,4.0,-999.0,33,-99.99,,,0.00,weatherlink.com 1.10,2013-03-26 20:42:00,
2013-03-26 15:57:00,58.9,29.0,31.22,SSW,200,3.0,-999.0,32,-99.99,,,0.00,weatherlink.com 1.10,2013-03-26 20:57:00,
2013-03-26 16:12:00,59.6,29.0,31.21,North,5,3.0,-999.0,31,-99.99,,,0.00,weatherlink.com 1.10,2013-03-26 21:12:00,
2013-03-26 16:27:00,59.6,29.0,31.21,NE,52,3.0,-999.0,31,-99.99,,,0.00,weatherlink.com 1.10,2013-03-26 21:27:00,
2013-03-26 16:42:00,59.6,30.0,31.20,North,355,2.0,-999.0,33,-99.99,,,0.00,weatherlink.com 1.10,2013-03-26 21:42:00,
2013-03-26 16:57:00,59.5,27.0,31.19,NNE,26,0.0,-999.0,29,-99.99,,,0.00,weatherlink.com 1.10,2013-03-26 21:57:00,
2013-03-26 17:12:00,60.0,28.0,31.19,NNW,327,3.0,-999.0,30,-99.99,,,0.00,weatherlink.com 1.10,2013-03-26 22:12:00,
2013-03-26 17:27:00,60.1,28.0,31.18,NNW,348,4.0,-999.0,29,-99.99,,,0.00,weatherlink.com 1.10,2013-03-26 22:27:00,
2013-03-26 17:42:00,59.5,28.0,31.18,NNE,19,2.0,-999.0,30,-99.99,,,0.00,weatherlink.com 1.10,2013-03-26 22:42:00,
2013-03-26 17:57:00,59.4,27.0,31.18,NNE,31,0.0,-999.0,29,-99.99,,,0.00,weatherlink.com 1.10,2013-03-26 22:57:00,
2013-03-26 18:12:00,59.1,28.0,31.18,NNW,347,0.0,-999.0,30,-99.99,,,0.00,weatherlink.com 1.10,2013-03-26 23:12:00,
2013-03-26 18:28:00,58.5,27.0,31.18,NNW,346,0.0,-999.0,30,-99.99,,,0.00,weatherlink.com 1.10,2013-03-26 23:28:00,
2013-03-26 18:43:00,58.2,27.0,31.17,NNE,32,0.0,-999.0,30,-99.99,,,0.00,weatherlink.com 1.10,2013-03-26 23:43:00,
2013-03-26 18:57:00,57.4,27.0,31.17,NNW,348,0.0,-999.0,31,-99.99,,,0.00,weatherlink.com 1.10,2013-03-26 23:57:00,
2013-03-26 19:12:00,56.7,26.0,31.17,North,355,0.0,-999.0,31,-99.99,,,0.00,weatherlink.com 1.10,2013-03-27 00:12:00,
2013-03-26 19:28:00,55.9,27.0,31.17,North,355,0.0,-999.0,33,-99.99,,,0.00,weatherlink.com 1.10,2013-03-27 00:28:00,
2013-03-26 19:42:00,54.6,28.0,31.18,North,355,0.0,-999.0,36,-99.99,,,0.00,weatherlink.com 1.10,2013-03-27 00:42:00,
2013-03-26 19:57:00,51.9,30.0,31.18,North,355,0.0,-999.0,44,-99.99,,,0.00,weatherlink.com 1.10,2013-03-27 00:57:00,
2013-03-26 20:13:00,49.3,31.0,31.18,North,355,0.0,-999.0,49,-99.99,,,0.00,weatherlink.com 1.10,2013-03-27 01:13:00,
2013-03-26 20:28:00,47.3,31.0,31.19,North,355,0.0,-999.0,53,-99.99,,,0.00,weatherlink.com 1.10,2013-03-27 01:28:00,
2013-03-26 20:43:00,45.5,31.0,31.18,North,355,0.0,-999.0,57,-99.99,,,0.00,weatherlink.com 1.10,2013-03-27 01:43:00,
2013-03-26 20:58:00,44.2,30.0,31.19,North,355,0.0,-999.0,59,-99.99,,,0.00,weatherlink.com 1.10,2013-03-27 01:58:00,
2013-03-26 21:13:00,43.1,30.0,31.20,North,355,0.0,-999.0,60,-99.99,,,0.00,weatherlink.com 1.10,2013-03-27 02:13:00,
2013-03-26 21:28:00,42.1,30.0,31.20,North,355,0.0,-999.0,63,-99.99,,,0.00,weatherlink.com 1.10,2013-03-27 02:28:00,
2013-03-26 21:43:00,41.4,31.0,31.20,North,355,0.0,-999.0,67,-99.99,,,0.00,weatherlink.com 1.10,2013-03-27 02:43:00,
2013-03-26 21:57:00,40.8,31.0,31.20,North,355,0.0,-999.0,69,-99.99,,,0.00,weatherlink.com 1.10,2013-03-27 02:57:00,
2013-03-26 22:12:00,40.2,31.0,31.20,North,355,0.0,-999.0,70,-99.99,,,0.00,weatherlink.com 1.10,2013-03-27 03:12:00,
2013-03-26 22:27:00,40.1,31.0,31.20,North,355,0.0,-999.0,71,-99.99,,,0.00,weatherlink.com 1.10,2013-03-27 03:27:00,
2013-03-26 22:42:00,40.1,31.0,31.21,North,355,0.0,-999.0,70,-99.99,,,0.00,weatherlink.com 1.10,2013-03-27 03:42:00,
2013-03-26 22:58:00,40.0,31.0,31.21,North,355,0.0,-999.0,70,-99.99,,,0.00,weatherlink.com 1.10,2013-03-27 03:58:00,
2013-03-26 23:13:00,40.4,31.0,31.21,North,355,0.0,-999.0,68,-99.99,,,0.00,weatherlink.com 1.10,2013-03-27 04:13:00,
2013-03-26 23:28:00,41.4,30.0,31.21,North,355,0.0,-999.0,64,-99.99,,,0.00,weatherlink.com 1.10,2013-03-27 04:28:00,
2013-03-26 23:43:00,41.7,30.0,31.21,North,355,0.0,-999.0,64,-99.99,,,0.00,weatherlink.com 1.10,2013-03-27 04:43:00,
2013-03-26 23:57:00,41.8,29.0,31.20,North,355,0.0,-999.0,62,-99.99,,,0.00,weatherlink.com 1.10,2013-03-27 04:57:00,